Wind_Speed
13 13 14 12 13 13 19 19 16 16 16 20 20 20 21 21 22 24 22 23 24 22 24 23 24 25 28 29 30 33 33 33 31 31 31 29 30 30 30 30 30 29 29 27 25 25 23 22 21
14 14 14 15 16 15 20 19 16 17 21 22 21 24 25 25 24 27 27 27 27 26 27 28 28 27 28 30 31 33 34 37 35 34 33 33 33 33 33 33 33 32 30 30 28 27 26 25 24
15 15 15 15 16 18 20 20 20 22 21 23 23 24 27 26 27 28 28 31 32 30 30 32 32 33 33 33 32 33 35 36 36 38 36 36 34 35 35 36 35 35 33 33 31 29 28 27 26
17 17 17 17 18 18 18 22 22 24 24 23 23 26 24 26 27 29 30 31 32 32 32 34 37 38 38 38 38 37 36 37 36 38 40 42 38 36 38 39 37 37 36 35 34 33 32 31 30
17 17 17 19 20 21 20 19 23 24 26 25 24 28 29 29 30 32 33 35 36 37 36 37 40 40 41 43 43 43 42 40 39 39 39 40 42 40 39 38 37 39 39 38 36 36 36 34 33
18 18 19 21 22 22 19 24 25 26 28 29 28 31 34 33 34 35 37 39 40 40 39 41 44 44 45 45 46 48 48 46 44 43 43 41 42 43 42 40 40 39 39 40 39 38 38 38 37
19 19 20 22 24 22 21 24 26 28 31 31 33 35 36 38 37 35 39 43 45 45 43 43 44 46 48 49 49 49 51 52 51 48 47 46 44 44 44 44 43 42 41 41 40 39 40 40 40
20 20 21 21 22 23 23 24 26 27 29 33 35 38 40 38 38 38 40 41 43 46 45 45 45 46 48 50 52 53 53 54 56 55 54 51 48 47 46 46 48 47 46 40 42 42 43 42 42
23 22 22 23 22 24 24 26 26 28 32 33 35 39 41 44 43 42 40 39 41 44 45 44 44 46 46 49 52 54 56 56 57 59 59 58 54 53 49 48 48 49 50 46 43 38 43 45 44
25 25 24 25 25 26 25 26 28 31 34 37 40 40 43 46 46 41 40 41 44 46 47 47 46 46 48 49 52 53 56 58 60 60 62 63 59 58 53 52 52 51 51 50 49 45 40 38 38
25 25 26 26 28 28 28 29 32 33 35 39 39 42 45 47 47 46 45 45 45 47 49 53 54 52 54 53 55 57 59 58 60 64 64 65 66 62 61 58 56 54 53 51 50 48 46 45 45
26 27 28 28 28 30 31 32 36 39 40 43 44 43 44 46 48 50 52 53 53 54 55 57 57 60 59 61 61 63 61 63 63 63 67 67 69 69 63 63 61 58 57 55 53 52 47 42 57
28 28 30 30 30 31 33 36 38 41 45 48 48 47 48 47 49 52 53 57 58 61 61 62 65 68 68 69 69 68 69 69 70 71 69 71 70 71 70 64 65 63 61 60 56 54 52 47 51
29 30 31 31 32 33 35 38 41 45 47 52 53 52 53 51 50 53 55 58 63 66 68 71 72 72 74 78 80 77 78 78 77 79 77 76 75 74 74 73 65 66 66 63 61 58 55 54 57
32 30 32 33 33 34 37 39 43 47 52 56 56 57 60 57 56 57 60 63 66 70 72 75 78 80 82 83 83 82 83 83 82 83 87 85 79 79 77 78 73 65 65 67 64 62 58 59 52
32 32 32 34 34 36 39 41 46 51 55 57 57 56 56 58 58 60 63 67 71 74 77 80 83 84 87 87 86 84 86 83 85 82 88 91 85 82 81 79 80 74 51 54 69 63 60 59 53
32 34 33 35 37 39 42 44 51 55 58 56 52 51 53 56 60 64 69 73 78 80 82 82 80 79 77 78 76 77 76 77 78 86 93 94 91 86 83 84 84 81 81 73 56 67 66 66 62
33 34 33 36 39 41 44 48 51 53 51 46 46 50 55 59 64 68 75 79 80 77 68 62 60 60 62 64 68 70 68 68 73 81 98 99 95 91 88 86 84 85 82 72 59 55 65 73 65
33 34 35 37 39 42 45 48 47 46 45 43 47 53 57 61 67 72 72 64 52 48 47 50 52 53 50 53 54 55 56 62 65 72 91 97 97 96 92 89 88 87 87 82 76 59 49 59 68
32 33 34 37 40 43 46 45 42 42 45 48 51 54 58 61 57 53 51 47 45 45 46 45 44 46 47 48 49 51 57 58 55 65 78 84 92 97 94 90 87 86 87 88 86 75 61 58 54
30 32 34 38 41 43 44 43 42 45 45 47 48 50 46 48 48 44 44 43 42 42 42 43 43 43 42 43 43 45 47 51 53 62 68 77 83 92 90 83 81 86 84 89 77 80 69 58 45
28 31 33 37 41 45 44 46 45 46 41 40 40 37 39 41 43 42 40 41 39 37 37 38 38 39 39 38 38 41 48 47 51 55 56 65 69 82 80 81 84 81 82 81 88 84 77 73 66
27 29 33 37 40 42 42 46 40 34 35 31 35 36 34 37 37 38 38 37 35 36 37 36 33 31 31 32 27 28 28 38 46 48 49 54 61 74 78 75 76 73 63 64 77 82 78 69 60
25 29 33 37 41 42 43 44 34 34 29 31 39 33 32 32 34 33 32 31 31 32 34 34 31 27 26 25 23 23 19 25 34 44 51 50 54 64 69 68 70 73 75 71 62 73 73 76 59
24 28 33 39 40 41 43 33 32 29 26 35 32 30 27 31 32 34 32 32 29 29 30 30 30 27 22 22 24 21 20 23 27 34 45 45 47 59 65 63 60 60 67 68 67 62 70 68 74
23 26 31 37 39 41 32 29 27 23 27 28 28 28 29 33 34 33 30 29 27 25 26 27 26 22 16 16 18 18 18 19 23 25 37 42 47 53 58 58 54 40 50 64 63 61 55 65 58
20 25 29 34 37 38 27 27 22 20 25 27 29 29 31 33 35 31 29 27 25 22 23 25 25 19 12 9 10 14 18 19 15 23 32 38 44 49 51 53 55 55 52 51 61 56 66 59 54
20 24 29 32 37 35 26 24 20 20 23 25 28 31 32 33 33 29 27 25 22 21 21 23 25 23 15 6 3 9 17 15 14 25 31 34 39 42 44 45 45 46 44 43 42 45 45 42 47
17 23 25 31 28 30 27 22 17 17 20 23 28 32 34 35 32 26 25 24 23 20 20 21 22 22 19 14 8 4 7 9 19 29 31 34 39 38 36 38 37 38 39 36 35 35 36 35 39
16 19 24 29 25 26 25 19 14 16 19 25 28 31 29 33 33 23 24 21 21 20 19 23 23 19 14 11 10 11 14 19 24 27 36 41 40 34 34 36 36 35 35 34 34 36 37 39 38
Wind_Direction
269 268 266 263 258 249 250 255 251 253 263 257 263 263 259 260 264 269 268 259 258 252 254 252 248 244 239 241 240 241 242 237 236 237 238 234 231 226 220 214 214 213 213 215 216 210 210 207 212
274 268 267 267 266 258 260 263 266 256 255 260 262 267 266 267 267 266 268 265 262 259 257 256 252 249 248 246 242 239 240 243 234 237 241 239 235 230 226 220 217 216 217 218 214 217 214 213 212
272 272 269 264 262 264 271 270 267 263 260 263 263 263 267 270 271 269 265 264 264 260 258 257 255 254 252 248 247 246 243 240 243 236 238 240 236 234 231 227 222 222 216 218 220 219 221 221 220
276 276 276 276 276 273 270 276 276 273 274 271 274 268 265 267 267 267 267 267 266 263 262 262 258 254 253 254 252 247 244 244 241 243 239 238 236 235 234 232 227 225 225 222 219 220 221 223 223
273 275 279 279 279 280 278 277 273 278 277 274 274 279 271 271 271 274 271 266 262 261 260 260 260 258 255 253 252 252 248 243 243 243 244 244 238 237 235 236 234 231 229 228 224 223 221 222 225
273 275 277 278 277 277 283 281 282 281 282 283 281 277 281 280 278 273 271 270 270 267 264 260 261 260 259 256 253 252 250 248 245 243 243 242 243 240 237 235 235 234 231 233 230 228 224 224 226
273 274 276 276 277 278 280 280 285 286 287 288 289 288 286 285 279 270 269 271 271 269 263 259 259 258 258 257 254 252 251 249 246 244 243 242 239 240 242 237 236 234 235 236 233 233 233 228 228
275 277 277 277 280 283 281 280 282 285 285 286 287 287 287 283 279 278 276 274 272 271 270 266 260 257 257 256 255 253 250 249 248 244 244 242 240 239 237 240 239 236 233 232 241 235 235 233 230
281 279 279 278 280 282 285 288 287 286 287 287 286 290 290 288 285 283 281 277 276 274 274 274 270 265 264 259 255 253 252 248 247 246 242 243 240 240 234 238 240 241 238 236 233 238 242 236 230
282 282 284 287 285 285 286 288 291 292 293 291 289 289 288 289 286 281 277 276 279 279 277 273 271 264 263 263 263 258 252 251 247 245 243 241 240 239 238 238 238 239 241 241 240 238 235 239 244
281 282 284 287 289 289 292 295 292 293 296 293 288 283 285 287 284 280 276 274 274 277 275 277 274 272 263 264 264 262 261 254 250 247 243 240 239 238 237 235 236 237 238 239 240 240 240 242 238
282 284 286 288 289 291 295 296 297 300 298 299 290 284 281 281 282 279 278 278 277 278 276 276 276 271 272 265 270 262 259 259 256 251 246 241 238 236 235 235 235 236 237 236 237 241 240 235 247
283 284 287 290 290 291 297 298 298 301 299 296 291 283 280 281 283 285 283 282 282 281 282 279 277 275 272 270 272 265 258 258 257 255 251 244 238 236 231 233 234 235 235 236 236 236 240 238 236
282 284 286 289 290 293 296 298 298 300 298 297 293 284 281 281 283 284 283 282 282 283 283 283 281 281 278 274 271 269 260 261 256 253 253 248 240 235 233 229 230 234 234 236 234 234 234 239 249
284 285 288 289 291 295 299 302 301 299 298 295 290 284 279 278 279 283 285 286 286 285 285 285 285 285 283 278 271 266 262 263 257 259 251 245 242 236 232 229 227 230 239 235 233 235 234 233 236
285 286 288 289 292 294 295 299 303 302 300 294 293 285 283 282 284 286 287 288 288 288 288 286 284 283 280 277 272 270 265 261 262 247 238 238 236 235 232 228 224 220 214 233 236 236 235 236 240
284 289 291 293 294 295 300 304 308 306 300 297 289 283 284 288 288 289 291 291 289 287 285 283 280 276 272 269 268 267 265 262 252 237 229 228 229 229 230 228 224 223 225 227 235 235 236 234 235
286 289 291 294 295 297 306 309 312 306 305 297 291 287 290 291 292 292 292 290 289 288 285 279 275 273 273 273 272 268 263 258 247 233 223 223 222 222 225 227 224 221 223 223 225 231 235 236 240
289 292 295 294 299 303 312 313 311 310 305 298 293 293 293 294 296 296 296 297 296 292 289 284 281 281 280 278 273 268 262 255 245 233 225 222 220 218 220 222 223 222 219 221 218 229 241 238 241
289 292 295 298 304 308 314 316 315 310 302 296 292 295 299 302 303 305 307 305 303 297 291 288 285 283 280 275 270 263 256 250 244 234 227 224 222 218 217 219 221 222 220 220 221 223 228 234 239
290 295 297 302 307 312 316 315 313 310 306 300 301 305 308 307 312 316 316 311 304 299 294 290 287 281 279 276 272 265 259 253 241 232 228 222 223 219 215 216 218 220 221 222 222 225 232 228 230
290 295 298 303 311 318 320 318 317 311 308 310 314 316 315 317 321 323 320 318 312 305 299 297 293 283 279 277 271 265 261 248 236 229 225 222 220 220 214 210 215 218 219 221 225 226 227 230 233
291 297 301 307 315 319 321 319 322 320 319 324 322 322 323 331 335 329 323 319 314 309 308 312 308 289 277 275 267 281 266 237 226 222 219 219 215 217 216 214 214 214 211 220 224 227 229 231 235
296 300 307 312 318 321 327 326 326 328 332 330 329 328 340 350 343 335 331 324 322 319 318 315 306 292 274 269 254 269 275 235 227 217 212 217 214 213 217 213 214 213 215 220 219 227 229 230 233
297 305 310 316 323 327 330 329 330 335 330 332 338 340 349 347 342 335 333 333 330 329 325 317 311 303 283 265 249 250 256 235 223 217 212 213 209 209 210 212 213 216 219 221 222 226 223 223 229
300 306 314 320 324 328 331 331 335 334 333 343 348 348 347 343 341 343 338 332 332 337 332 324 326 317 298 269 254 244 236 220 214 212 204 207 206 207 207 207 209 200 217 219 216 214 224 225 230
299 307 318 322 323 325 337 334 333 339 337 344 345 347 345 343 343 341 343 339 336 345 347 343 341 339 323 285 251 231 219 199 210 200 196 197 201 203 201 203 206 209 221 224 223 227 229 219 224
304 314 322 326 328 327 338 339 339 340 338 342 344 349 348 346 344 343 342 346 348 358 7 2 354 356 353 342 217 203 197 199 206 194 186 185 191 193 198 205 212 215 217 218 224 231 237 246 250
308 316 324 325 331 330 337 343 338 335 336 339 342 344 342 343 340 349 349 352 358 7 23 26 17 11 16 31 54 121 181 190 193 182 171 169 173 175 188 200 203 208 207 215 223 230 233 236 240
312 318 327 328 331 336 342 341 342 339 340 342 344 346 350 348 348 351 359 358 8 15 34 44 44 43 45 69 99 125 152 163 161 152 156 158 153 161 185 193 193 196 202 208 219 220 222 219 220
Height
5787 5788 5788 5789 5792 5790 5787 5789 5792 5793 5794 5791 5792 5794 5795 5795 5796 5798 5798 5798 5798 5801 5801 5803 5805 5806 5806 5808 5809 5810 5812 5812 5813 5815 5816 5818 5819 5821 5823 5825 5826 5828 5830 5833 5836 5837 5840 5841 5844
5784 5785 5786 5786 5787 5786 5785 5787 5789 5790 5789 5789 5790 5789 5790 5791 5792 5792 5792 5792 5793 5795 5797 5798 5799 5800 5802 5803 5804 5804 5805 5807 5808 5810 5812 5813 5815 5817 5818 5820 5821 5824 5825 5828 5831 5834 5836 5838 5840
5781 5781 5782 5783 5783 5783 5783 5783 5783 5783 5785 5785 5787 5787 5786 5787 5786 5786 5786 5786 5786 5789 5791 5792 5792 5793 5795 5796 5799 5800 5800 5801 5803 5806 5807 5807 5810 5812 5813 5816 5817 5819 5820 5824 5827 5830 5832 5834 5836
5778 5779 5780 5779 5778 5779 5780 5778 5778 5777 5777 5779 5779 5779 5782 5781 5780 5779 5779 5779 5780 5782 5784 5784 5784 5785 5787 5789 5791 5792 5794 5796 5797 5799 5801 5801 5802 5805 5808 5810 5812 5814 5816 5818 5821 5824 5827 5829 5832
5774 5775 5775 5775 5775 5775 5774 5774 5772 5772 5771 5772 5773 5770 5773 5774 5775 5773 5771 5771 5772 5774 5776 5775 5774 5776 5778 5780 5782 5783 5787 5789 5791 5793 5793 5795 5795 5798 5801 5804 5806 5810 5811 5813 5815 5819 5822 5825 5827
5771 5771 5771 5770 5770 5770 5771 5768 5767 5767 5766 5765 5766 5765 5764 5765 5765 5764 5763 5762 5764 5766 5767 5764 5765 5767 5768 5770 5772 5774 5776 5780 5783 5786 5786 5788 5788 5790 5793 5797 5800 5803 5805 5807 5809 5812 5816 5819 5821
5767 5767 5767 5766 5765 5766 5765 5763 5762 5760 5758 5758 5756 5756 5757 5756 5755 5753 5752 5752 5752 5754 5755 5754 5756 5755 5756 5758 5761 5764 5766 5770 5773 5777 5779 5780 5782 5783 5786 5790 5792 5795 5797 5800 5803 5806 5809 5812 5815
5763 5762 5762 5761 5761 5760 5760 5759 5757 5756 5754 5751 5749 5748 5748 5747 5743 5741 5741 5742 5742 5741 5740 5742 5745 5744 5744 5745 5747 5750 5754 5757 5761 5765 5768 5771 5775 5776 5778 5782 5784 5787 5788 5792 5794 5798 5801 5804 5807
5757 5757 5756 5755 5755 5754 5752 5751 5750 5748 5745 5744 5742 5739 5737 5733 5730 5729 5728 5728 5727 5726 5726 5727 5729 5729 5730 5732 5735 5737 5739 5743 5747 5752 5757 5760 5764 5766 5770 5773 5776 5780 5780 5783 5786 5791 5793 5794 5799
5751 5751 5750 5749 5747 5746 5745 5744 5741 5739 5736 5733 5729 5728 5725 5720 5718 5716 5715 5714 5713 5711 5712 5712 5714 5716 5717 5717 5719 5722 5725 5729 5732 5737 5743 5748 5752 5756 5761 5765 5768 5771 5773 5776 5779 5782 5785 5788 5791
5745 5745 5742 5742 5740 5738 5736 5733 5731 5729 5727 5722 5720 5715 5710 5707 5703 5702 5702 5701 5702 5700 5698 5696 5696 5699 5702 5703 5705 5706 5709 5713 5717 5721 5727 5734 5739 5744 5749 5754 5758 5761 5764 5767 5770 5772 5776 5781 5782
5739 5737 5736 5734 5733 5730 5727 5725 5720 5717 5715 5712 5708 5704 5701 5697 5693 5690 5687 5685 5686 5683 5683 5681 5680 5680 5682 5686 5689 5691 5692 5695 5700 5705 5710 5717 5723 5730 5736 5742 5746 5750 5754 5756 5759 5762 5767 5772 5773
5732 5731 5728 5727 5724 5722 5719 5715 5712 5709 5704 5699 5696 5692 5689 5686 5682 5678 5676 5672 5668 5666 5664 5663 5662 5661 5662 5665 5667 5671 5674 5677 5681 5687 5693 5698 5706 5713 5721 5728 5734 5739 5742 5745 5750 5754 5759 5764 5757
5726 5724 5721 5720 5716 5714 5711 5707 5703 5698 5693 5688 5684 5680 5676 5673 5669 5664 5660 5656 5652 5648 5644 5639 5636 5637 5637 5640 5642 5647 5650 5654 5659 5665 5672 5679 5688 5696 5703 5712 5720 5725 5730 5734 5740 5744 5749 5751 5752
5718 5717 5714 5711 5709 5705 5702 5699 5694 5688 5682 5676 5671 5666 5660 5658 5654 5649 5643 5638 5632 5627 5624 5618 5612 5608 5606 5608 5612 5617 5622 5626 5632 5639 5647 5658 5667 5677 5685 5695 5706 5715 5721 5723 5728 5733 5737 5740 5741
5711 5709 5707 5703 5700 5697 5694 5692 5683 5677 5670 5661 5656 5649 5644 5639 5635 5631 5625 5619 5613 5606 5599 5594 5588 5584 5580 5578 5577 5581 5590 5594 5600 5609 5617 5631 5644 5654 5666 5676 5689 5700 5703 5711 5716 5720 5725 5729 5733
5703 5700 5698 5694 5691 5687 5684 5680 5669 5661 5652 5647 5640 5636 5630 5624 5618 5612 5605 5597 5589 5582 5576 5569 5563 5557 5553 5552 5550 5552 5555 5559 5568 5578 5590 5603 5618 5631 5644 5656 5667 5681 5690 5701 5699 5706 5712 5716 5719
5695 5693 5691 5686 5682 5677 5673 5668 5657 5647 5640 5633 5628 5622 5617 5609 5601 5593 5584 5574 5564 5555 5548 5543 5539 5535 5531 5529 5528 5528 5529 5530 5539 5549 5562 5574 5590 5605 5619 5633 5647 5659 5673 5684 5694 5694 5698 5703 5709
5687 5684 5681 5677 5673 5668 5663 5657 5647 5637 5627 5621 5616 5610 5601 5594 5584 5574 5563 5551 5541 5534 5530 5525 5521 5517 5513 5510 5508 5507 5508 5509 5514 5523 5535 5549 5563 5578 5596 5612 5626 5641 5656 5666 5675 5683 5687 5691 5698
5679 5676 5674 5669 5664 5659 5653 5647 5638 5629 5621 5612 5604 5597 5588 5578 5567 5556 5545 5536 5528 5522 5515 5510 5504 5500 5496 5493 5490 5489 5487 5488 5494 5503 5513 5525 5539 5555 5574 5591 5608 5623 5636 5648 5660 5668 5675 5679 5687
5671 5669 5665 5660 5655 5650 5643 5638 5629 5619 5609 5602 5595 5586 5576 5564 5555 5544 5533 5525 5516 5508 5502 5495 5489 5484 5480 5477 5474 5471 5470 5471 5478 5486 5496 5507 5521 5539 5559 5576 5592 5604 5620 5632 5647 5655 5662 5672 5673
5665 5662 5657 5653 5647 5641 5632 5625 5619 5608 5599 5593 5584 5576 5566 5556 5545 5535 5524 5513 5504 5496 5489 5482 5475 5469 5465 5462 5459 5456 5454 5456 5462 5472 5481 5493 5507 5526 5543 5560 5573 5588 5603 5616 5628 5638 5647 5655 5663
5657 5654 5650 5645 5639 5632 5624 5616 5607 5600 5593 5585 5576 5568 5559 5549 5538 5525 5514 5505 5495 5485 5477 5470 5464 5458 5453 5449 5446 5444 5440 5442 5450 5460 5472 5483 5496 5514 5531 5546 5561 5577 5592 5603 5615 5624 5637 5645 5654
5649 5646 5641 5636 5631 5624 5616 5606 5600 5592 5585 5578 5569 5561 5551 5540 5530 5519 5509 5498 5488 5478 5469 5462 5454 5447 5442 5439 5437 5437 5435 5437 5442 5452 5464 5476 5490 5508 5522 5536 5550 5566 5578 5591 5604 5613 5625 5636 5644
5643 5639 5634 5628 5622 5615 5607 5599 5593 5587 5580 5573 5564 5554 5545 5535 5525 5515 5504 5493 5483 5473 5464 5455 5446 5439 5434 5432 5431 5431 5432 5434 5438 5446 5458 5472 5484 5493 5509 5527 5544 5558 5569 5581 5593 5606 5616 5625 5634
5636 5633 5629 5620 5614 5610 5603 5595 5590 5583 5577 5569 5561 5550 5541 5532 5522 5511 5501 5490 5479 5470 5459 5450 5440 5432 5428 5426 5425 5427 5428 5431 5436 5443 5453 5464 5476 5488 5504 5522 5538 5554 5561 5574 5587 5597 5607 5615 5623
5630 5627 5622 5615 5610 5602 5599 5592 5587 5580 5574 5567 5557 5548 5539 5529 5519 5509 5499 5488 5478 5468 5458 5447 5437 5430 5424 5423 5422 5423 5426 5431 5436 5441 5448 5460 5473 5486 5504 5519 5534 5547 5559 5572 5583 5591 5598 5605 5612
5624 5621 5615 5609 5602 5595 5593 5588 5582 5577 5572 5564 5555 5547 5537 5528 5518 5508 5498 5488 5477 5467 5458 5447 5438 5430 5424 5422 5421 5423 5426 5431 5436 5441 5448 5458 5472 5487 5504 5519 5534 5547 5557 5567 5577 5585 5592 5597 5606
5619 5615 5611 5605 5600 5592 5588 5585 5579 5575 5570 5562 5554 5546 5536 5526 5516 5507 5497 5488 5479 5469 5459 5451 5443 5434 5428 5425 5424 5426 5428 5432 5436 5442 5448 5458 5473 5489 5506 5520 5532 5544 5554 5563 5571 5579 5586 5592 5597
5613 5610 5605 5600 5596 5590 5585 5582 5577 5573 5568 5562 5554 5545 5536 5526 5516 5507 5498 5490 5482 5473 5463 5455 5448 5442 5436 5432 5431 5431 5433 5436 5440 5445 5453 5464 5475 5492 5509 5522 5532 5541 5550 5557 5565 5571 5577 5583 5589